Probability
0 0 0 0 0 0 0 0 0 0 0 0 0 0 0 0 0 0 0 0 6 10 13 23 23 26 29 29 29 29 35 42 48 52 52 55 61 65 71 74 74 77 71 58 58 52 52 52 48
0 0 0 0 0 0 0 0 0 0 0 0 0 0 0 0 0 0 0 0 6 10 6 13 23 23 26 32 29 29 29 35 42 42 42 52 55 61 65 65 65 68 65 55 52 48 42 48 45
0 0 0 0 0 0 0 0 0 0 0 0 0 0 0 0 0 0 0 0 3 6 6 16 16 19 19 19 23 26 26 29 29 42 42 42 48 52 58 58 61 55 48 48 52 45 45 42 39
0 0 0 0 0 0 0 0 0 0 0 0 0 0 0 0 0 0 0 0 3 6 6 6 13 16 16 16 19 23 26 26 26 29 39 35 42 48 48 55 55 48 42 39 45 48 45 45 42
0 0 0 0 0 0 0 0 0 0 0 0 0 0 0 0 0 0 0 0 0 6 6 6 6 10 10 13 13 16 19 26 26 26 29 35 42 42 48 52 42 45 39 35 32 42 42 42 39
0 0 0 0 0 0 0 0 0 0 0 0 0 0 0 0 0 0 0 0 0 6 6 3 6 3 3 6 10 13 16 19 19 19 23 29 35 42 39 35 39 35 35 32 32 29 39 32 29
0 0 0 0 0 0 0 0 0 0 0 0 0 0 0 0 0 0 0 0 0 3 3 3 3 3 3 3 10 3 10 13 16 19 19 19 26 29 32 32 39 29 26 26 32 32 23 23 26
0 0 0 0 0 0 0 0 0 0 0 0 0 0 0 0 0 0 0 0 3 3 0 3 3 3 3 3 0 0 0 10 13 16 13 6 6 10 19 23 19 26 23 16 23 26 23 16 16
0 0 0 0 0 0 0 0 0 0 0 0 0 0 0 0 0 0 0 0 3 3 0 0 3 3 3 0 0 0 0 3 3 10 3 0 0 0 0 0 3 6 13 16 16 23 16 10 3
0 0 0 0 0 0 0 0 0 0 0 0 0 0 0 0 0 0 0 0 3 3 3 0 0 3 3 0 0 0 0 0 0 3 3 0 0 0 0 0 0 3 3 6 6 13 10 0 0
0 0 0 0 0 0 0 0 0 0 0 0 0 0 0 0 0 0 0 0 0 3 3 3 0 0 0 0 0 0 0 0 3 6 3 3 0 0 0 0 0 0 0 0 0 0 0 0 0
0 0 0 0 0 0 0 0 0 0 0 0 0 0 0 0 0 0 0 0 0 0 0 0 0 0 0 0 0 0 0 0 0 3 3 0 0 0 0 0 0 0 0 0 0 0 0 0 0
0 0 0 0 0 0 0 0 0 0 0 0 0 0 0 0 0 0 0 0 0 0 0 0 0 0 0 0 0 0 0 0 0 0 0 0 0 0 0 0 0 0 0 0 0 0 0 0 0
0 0 0 0 0 0 0 0 0 0 0 0 0 0 0 0 0 0 0 0 0 0 0 0 0 0 0 0 0 0 0 0 0 0 0 0 0 0 0 0 0 0 0 0 0 0 0 0 0
0 0 0 0 0 0 0 0 0 0 0 0 0 0 0 0 0 0 0 0 0 0 0 0 0 0 0 0 0 0 0 0 0 0 0 0 0 0 0 0 0 0 0 0 0 0 0 0 0
0 0 0 0 0 0 0 0 0 0 0 0 0 0 0 0 0 0 0 0 0 0 0 0 0 0 0 0 0 0 0 0 0 0 0 0 0 0 0 0 0 0 0 0 0 0 0 0 0
0 0 0 0 0 0 0 0 0 0 0 0 0 0 0 0 0 0 0 0 0 0 0 0 0 0 0 0 0 0 0 0 0 0 0 0 0 0 0 0 0 0 0 0 0 0 0 0 0
0 0 0 0 0 0 0 0 0 0 0 0 0 0 0 0 0 0 0 0 0 0 0 0 0 0 0 0 0 0 0 0 0 0 0 0 0 0 0 0 0 0 0 0 0 0 0 0 0
0 0 0 0 0 0 0 0 0 0 0 0 0 0 0 0 0 0 0 0 0 0 0 0 0 0 0 0 0 0 0 0 0 0 0 0 0 0 0 0 0 0 0 0 0 0 0 0 0
0 0 0 0 0 0 0 0 0 0 0 0 0 0 0 0 0 0 0 0 0 0 0 0 0 0 0 0 0 0 0 0 0 0 0 0 0 0 0 0 0 0 0 0 0 0 0 0 0
0 0 0 0 0 0 0 0 0 0 0 0 0 0 0 0 0 0 0 0 0 0 0 0 0 0 0 0 0 0 0 0 0 0 0 0 0 0 0 0 0 0 0 0 0 0 0 0 0
0 0 0 0 0 0 0 0 0 0 0 0 0 0 0 0 0 0 0 0 0 0 0 0 0 0 0 0 0 0 0 0 0 0 0 0 0 0 0 0 0 0 0 0 0 0 0 0 0
0 0 0 0 0 0 0 0 0 0 0 0 0 0 0 0 0 0 0 0 0 0 0 0 0 0 0 0 0 0 0 0 0 0 0 0 0 0 0 0 0 0 0 0 0 0 0 0 0
0 0 0 0 0 0 0 0 0 0 0 0 0 0 0 0 0 0 0 0 0 0 0 0 0 0 0 0 0 0 0 0 0 0 0 0 0 0 0 0 0 0 0 0 0 0 0 0 0
0 0 0 0 0 0 0 0 0 0 0 0 0 0 0 0 0 0 0 0 0 0 0 0 0 0 0 0 0 0 0 0 0 0 0 0 0 0 0 0 0 0 0 0 0 0 0 0 0
0 0 0 0 0 0 0 0 0 0 0 0 0 0 0 0 0 0 0 0 0 0 0 0 0 0 0 0 0 0 0 0 0 0 0 0 0 0 0 0 0 0 0 0 0 0 0 0 0
0 0 0 0 0 0 0 0 0 0 0 0 0 0 0 0 0 0 0 0 0 0 0 0 0 0 0 0 0 0 0 0 0 0 0 0 0 0 0 0 0 0 0 0 0 0 0 0 0
0 0 0 0 0 0 0 0 0 0 0 0 0 0 0 0 0 0 0 0 0 0 0 0 0 0 0 0 0 0 0 0 0 0 0 0 0 0 0 0 0 0 0 0 0 0 0 0 0
0 0 0 0 0 0 0 0 0 0 0 0 0 0 0 0 0 0 0 0 0 0 0 0 0 0 0 0 0 0 0 0 0 0 0 0 0 0 0 0 0 0 0 0 0 0 0 0 0
0 0 0 0 0 0 0 0 0 0 0 0 0 0 0 0 0 0 0 0 0 0 0 0 0 0 0 0 0 0 0 0 0 0 0 0 0 0 0 0 0 0 0 0 0 0 0 0 0
Height
5809 5810 5811 5812 5814 5815 5816 5817 5818 5819 5821 5822 5823 5824 5825 5827 5828 5832 5831 5831 5833 5834 5835 5836 5837 5838 5839 5840 5841 5842 5843 5844 5846 5846 5847 5848 5849 5850 5851 5851 5852 5853 5853 5854 5854 5855 5855 5856 5856
5805 5806 5808 5809 5809 5811 5812 5812 5813 5815 5817 5818 5819 5820 5821 5822 5824 5825 5826 5827 5828 5830 5831 5832 5833 5834 5835 5836 5837 5838 5839 5841 5842 5843 5843 5844 5845 5846 5847 5848 5849 5849 5850 5851 5851 5852 5852 5852 5852
5800 5801 5804 5804 5805 5806 5807 5808 5809 5811 5812 5813 5815 5816 5817 5819 5820 5820 5821 5822 5824 5825 5826 5827 5829 5830 5831 5832 5833 5834 5835 5836 5837 5838 5839 5840 5841 5842 5843 5844 5844 5845 5846 5847 5847 5848 5848 5848 5848
5796 5798 5799 5801 5801 5801 5802 5803 5805 5805 5807 5808 5810 5811 5812 5814 5815 5815 5816 5817 5819 5820 5822 5822 5824 5825 5826 5827 5828 5829 5830 5831 5832 5833 5834 5835 5836 5837 5838 5839 5840 5841 5842 5842 5843 5844 5844 5844 5845
5792 5793 5794 5795 5796 5796 5797 5798 5799 5800 5802 5803 5804 5805 5807 5808 5809 5810 5811 5812 5813 5815 5816 5817 5818 5819 5820 5822 5823 5824 5825 5826 5827 5828 5829 5830 5831 5832 5832 5833 5834 5835 5836 5837 5838 5839 5839 5839 5840
5788 5789 5790 5790 5790 5791 5793 5794 5794 5795 5796 5797 5798 5800 5801 5802 5803 5804 5805 5806 5807 5809 5810 5811 5812 5813 5814 5815 5817 5818 5819 5820 5821 5822 5823 5824 5825 5826 5827 5828 5829 5830 5831 5832 5833 5834 5834 5835 5835
5784 5784 5785 5785 5785 5787 5788 5789 5789 5790 5791 5792 5792 5793 5794 5795 5797 5798 5799 5800 5801 5802 5803 5804 5805 5807 5808 5809 5810 5811 5812 5813 5814 5815 5816 5817 5818 5819 5820 5821 5822 5824 5825 5826 5827 5828 5829 5829 5830
5779 5781 5780 5780 5781 5782 5783 5783 5784 5784 5785 5786 5786 5786 5788 5789 5790 5791 5792 5793 5793 5795 5796 5797 5798 5799 5800 5801 5802 5803 5804 5806 5807 5808 5809 5810 5811 5812 5813 5814 5815 5817 5818 5819 5820 5821 5822 5823 5824
5775 5777 5776 5776 5776 5777 5778 5778 5779 5779 5779 5779 5780 5780 5781 5782 5782 5783 5784 5785 5786 5787 5788 5789 5790 5791 5792 5793 5794 5795 5796 5797 5798 5799 5801 5802 5803 5804 5805 5806 5808 5809 5810 5811 5813 5814 5815 5817 5818
5771 5771 5772 5772 5772 5772 5772 5772 5773 5773 5773 5773 5773 5773 5774 5774 5774 5775 5776 5777 5777 5778 5779 5780 5781 5782 5782 5783 5785 5786 5787 5788 5789 5790 5792 5793 5794 5796 5797 5798 5799 5801 5802 5803 5805 5806 5808 5809 5811
5767 5767 5767 5767 5767 5767 5767 5767 5766 5766 5766 5766 5766 5766 5766 5766 5766 5766 5767 5767 5768 5769 5769 5770 5771 5772 5772 5773 5775 5776 5777 5778 5779 5781 5782 5783 5784 5786 5787 5789 5790 5792 5793 5795 5796 5798 5800 5802 5803
5763 5763 5763 5763 5762 5762 5762 5761 5761 5760 5760 5759 5758 5757 5757 5757 5757 5757 5757 5757 5758 5758 5759 5759 5760 5761 5761 5762 5764 5765 5766 5767 5768 5770 5771 5772 5774 5775 5777 5779 5780 5782 5784 5785 5787 5789 5791 5793 5794
5759 5759 5758 5758 5757 5757 5756 5755 5754 5754 5752 5751 5750 5749 5748 5748 5748 5748 5747 5747 5747 5747 5747 5747 5747 5748 5749 5750 5751 5753 5754 5755 5756 5758 5759 5759 5761 5763 5765 5767 5769 5771 5773 5775 5777 5779 5781 5783 5785
5755 5754 5753 5753 5752 5751 5750 5749 5748 5747 5745 5743 5742 5741 5740 5739 5738 5738 5737 5737 5736 5735 5735 5734 5734 5735 5736 5737 5738 5739 5740 5741 5743 5744 5745 5746 5748 5750 5752 5754 5756 5759 5761 5763 5765 5768 5770 5773 5775
5750 5750 5749 5748 5746 5745 5744 5743 5741 5739 5737 5736 5734 5732 5731 5730 5729 5728 5727 5726 5725 5724 5723 5722 5721 5721 5722 5723 5724 5724 5725 5727 5728 5730 5731 5732 5734 5735 5738 5740 5742 5745 5747 5750 5752 5755 5758 5761 5764
5745 5744 5744 5743 5741 5739 5739 5737 5735 5732 5730 5728 5726 5724 5722 5721 5719 5718 5716 5715 5713 5712 5711 5709 5708 5707 5708 5709 5709 5710 5711 5712 5713 5714 5716 5717 5719 5720 5722 5724 5727 5729 5732 5735 5738 5741 5744 5748 5751
5740 5739 5737 5737 5735 5733 5732 5730 5727 5725 5722 5720 5717 5715 5713 5712 5710 5708 5706 5704 5702 5700 5699 5697 5695 5694 5694 5694 5695 5695 5695 5697 5698 5699 5701 5702 5703 5704 5706 5708 5710 5713 5716 5720 5723 5727 5730 5734 5737
5734 5733 5731 5730 5729 5727 5725 5723 5721 5717 5715 5712 5710 5707 5705 5703 5701 5699 5696 5693 5691 5689 5687 5685 5683 5681 5680 5680 5680 5680 5681 5682 5683 5684 5686 5687 5687 5687 5689 5692 5695 5697 5700 5704 5707 5711 5715 5718 5722
5728 5726 5725 5724 5722 5720 5718 5716 5714 5711 5708 5705 5702 5699 5697 5694 5692 5689 5687 5684 5681 5679 5676 5674 5672 5670 5668 5667 5667 5667 5668 5669 5669 5670 5670 5671 5671 5672 5674 5676 5679 5681 5684 5687 5691 5694 5698 5701 5705
5721 5720 5719 5718 5715 5713 5711 5710 5707 5704 5701 5698 5695 5691 5688 5686 5683 5681 5678 5675 5672 5669 5666 5664 5662 5659 5657 5655 5655 5655 5655 5655 5656 5656 5656 5656 5657 5657 5658 5661 5663 5665 5667 5670 5673 5676 5680 5684 5688
5715 5714 5712 5711 5709 5706 5704 5703 5701 5698 5694 5691 5687 5683 5680 5678 5675 5673 5670 5666 5663 5660 5657 5654 5652 5649 5647 5645 5644 5643 5642 5642 5642 5642 5641 5641 5642 5642 5643 5644 5646 5648 5650 5653 5656 5659 5663 5667 5671
5709 5708 5705 5703 5701 5699 5697 5694 5695 5691 5688 5684 5680 5676 5673 5670 5668 5665 5662 5659 5655 5652 5648 5645 5642 5639 5636 5634 5632 5631 5629 5629 5628 5627 5627 5627 5627 5627 5628 5628 5630 5632 5633 5636 5639 5642 5645 5650 5654
5702 5700 5698 5696 5694 5692 5690 5686 5687 5684 5681 5677 5673 5669 5666 5663 5660 5657 5654 5651 5647 5643 5640 5636 5633 5629 5626 5624 5621 5619 5617 5616 5614 5612 5612 5612 5612 5612 5612 5612 5613 5615 5617 5619 5622 5625 5629 5633 5637
5694 5693 5691 5689 5686 5685 5684 5680 5678 5676 5673 5670 5666 5662 5659 5655 5652 5649 5645 5642 5639 5635 5631 5627 5623 5620 5616 5613 5610 5606 5604 5602 5600 5599 5597 5596 5596 5596 5596 5596 5598 5599 5601 5603 5605 5608 5612 5616 5621
5687 5686 5684 5680 5678 5677 5675 5672 5671 5668 5665 5662 5659 5655 5651 5647 5644 5641 5637 5633 5630 5626 5622 5618 5614 5610 5606 5602 5598 5594 5591 5588 5586 5584 5582 5581 5580 5580 5580 5581 5582 5583 5585 5586 5589 5592 5596 5600 5604
5679 5678 5676 5673 5670 5668 5667 5664 5664 5660 5656 5653 5650 5647 5643 5639 5635 5632 5628 5624 5620 5616 5612 5608 5604 5600 5595 5591 5587 5583 5579 5575 5573 5570 5568 5566 5565 5565 5565 5565 5565 5566 5568 5570 5573 5576 5580 5584 5589
5672 5670 5669 5666 5662 5660 5658 5656 5655 5652 5649 5645 5642 5638 5634 5631 5627 5623 5619 5615 5610 5606 5602 5597 5593 5589 5584 5579 5575 5571 5567 5563 5559 5556 5554 5552 5550 5549 5549 5549 5549 5550 5552 5554 5557 5560 5564 5569 5574
5664 5662 5661 5657 5654 5651 5650 5648 5647 5643 5640 5637 5633 5629 5625 5621 5618 5614 5610 5606 5601 5596 5592 5587 5582 5577 5572 5567 5563 5558 5554 5550 5546 5543 5540 5538 5535 5534 5533 5533 5533 5535 5536 5538 5541 5544 5549 5554 5560
5656 5654 5652 5649 5647 5644 5641 5643 5639 5635 5631 5628 5624 5620 5616 5612 5608 5605 5601 5596 5591 5587 5582 5577 5571 5566 5561 5556 5551 5546 5542 5537 5533 5530 5527 5523 5521 5518 5517 5517 5518 5519 5521 5523 5526 5529 5534 5539 5545
5646 5645 5644 5642 5639 5636 5633 5636 5631 5627 5623 5619 5615 5611 5607 5602 5599 5595 5591 5586 5582 5577 5571 5566 5560 5555 5549 5544 5538 5534 5529 5525 5521 5517 5513 5509 5506 5504 5502 5502 5502 5504 5506 5508 5511 5515 5520 5525 5531
Wind_Speed
19 19 20 21 21 21 21 21 21 21 20 21 21 22 23 23 23 23 23 22 22 22 22 23 23 23 23 24 24 24 24 24 24 24 24 24 24 24 24 24 23 23 22 21 20 20 20 20 19
20 21 21 21 22 22 23 23 23 22 22 23 24 24 25 25 25 25 25 25 24 24 24 25 25 25 25 25 25 26 26 26 26 26 26 25 25 25 25 26 25 25 24 23 23 22 22 22 22
21 22 22 22 22 23 25 23 23 23 24 25 25 26 26 26 27 27 27 27 27 27 27 27 27 27 27 27 27 27 27 27 28 28 28 28 28 27 27 27 27 26 26 26 25 25 24 24 23
21 22 23 23 23 24 24 23 23 25 26 27 27 27 27 28 28 29 29 30 30 29 29 30 30 30 30 29 29 29 29 29 29 29 29 30 30 30 29 29 28 28 28 28 27 27 26 26 25
21 22 23 23 24 25 24 24 25 26 26 27 28 28 28 29 30 30 30 31 31 31 31 32 32 32 32 32 32 32 32 32 32 32 32 32 32 32 32 31 31 30 30 30 29 29 28 28 27
20 22 22 23 24 25 25 25 26 27 26 28 29 29 30 30 31 31 32 33 33 33 33 34 34 34 35 35 35 35 35 34 34 35 35 35 35 35 34 34 33 32 32 32 32 31 30 30 29
19 21 21 23 24 25 24 25 26 27 28 28 30 31 31 32 32 33 34 34 35 35 36 36 36 37 37 37 37 37 37 38 38 37 38 37 37 37 37 36 36 35 35 34 34 33 33 32 31
18 19 20 22 23 24 23 25 26 27 28 28 30 31 31 32 33 34 35 35 36 37 37 38 38 39 39 40 40 40 40 40 41 41 41 40 40 40 40 39 39 38 38 37 36 36 35 35 34
17 18 19 20 22 22 23 24 25 27 28 29 30 31 31 32 34 35 36 36 38 38 38 39 40 41 41 42 42 42 43 43 43 43 43 43 43 43 43 43 42 41 40 40 39 38 38 37 36
16 17 18 19 20 21 22 23 24 27 28 30 31 32 32 33 34 36 37 38 39 40 40 40 41 42 43 43 44 44 44 45 45 46 46 46 45 45 45 45 44 43 43 42 41 41 40 39 38
16 16 17 18 20 21 22 23 25 26 28 30 31 32 34 35 35 36 38 38 39 40 41 42 42 43 44 44 45 46 46 47 47 48 48 48 48 48 48 48 47 46 45 44 44 43 42 42 41
16 16 17 18 20 21 22 23 25 26 28 30 32 33 35 36 37 38 38 40 40 41 42 43 44 45 46 46 47 48 48 49 50 50 50 51 51 51 51 51 50 49 48 47 47 46 45 44 44
16 17 18 19 20 21 23 24 25 26 28 30 32 33 34 36 37 39 40 41 42 43 44 46 47 48 48 48 49 50 51 51 52 52 53 53 54 54 53 53 53 52 51 50 49 49 48 48 47
17 18 19 20 21 22 23 24 26 27 29 30 32 33 34 36 37 38 40 41 42 43 44 45 47 49 49 50 49 50 51 52 52 53 54 54 55 56 56 56 56 55 54 53 52 51 51 50 50
18 19 20 20 22 22 24 24 26 27 29 30 31 32 33 35 36 37 39 41 42 42 43 45 47 48 49 49 50 50 52 53 54 54 55 56 56 57 58 58 58 58 57 57 55 54 53 53 52
20 20 20 21 22 23 24 24 26 27 29 30 31 32 33 34 36 37 39 40 41 42 44 45 46 48 49 50 50 51 52 53 54 55 55 56 57 59 59 60 60 60 59 59 58 57 56 55 55
20 21 22 22 22 23 24 25 26 27 28 29 30 32 33 34 35 36 38 39 40 42 43 44 46 47 49 50 51 51 52 53 54 55 55 56 57 58 59 60 60 61 60 60 59 59 59 58 58
22 22 23 23 23 24 25 25 26 27 28 28 30 31 32 33 34 35 37 38 39 40 42 43 44 45 47 48 49 50 51 53 54 54 55 56 56 58 58 59 60 61 61 61 61 61 61 61 60
23 24 24 24 25 26 26 26 26 27 28 29 31 32 33 33 34 35 36 37 37 39 40 41 42 43 44 45 47 48 49 51 52 53 54 55 56 57 57 59 60 60 61 62 63 63 62 62 61
24 25 25 26 26 28 28 27 27 28 29 30 31 32 33 33 34 35 36 36 37 38 39 40 41 42 43 44 45 46 47 48 50 51 52 54 55 56 57 58 59 60 61 62 63 63 63 62 62
26 26 27 28 28 29 30 29 28 29 30 31 32 32 32 33 34 34 35 36 36 37 37 38 40 41 42 43 43 44 45 47 49 51 53 54 55 56 56 56 57 58 59 61 62 63 63 62 62
27 28 29 30 30 30 31 32 29 30 30 31 31 32 32 33 34 34 35 36 36 37 37 38 40 41 42 42 43 45 46 47 49 51 52 54 56 57 57 56 57 58 58 59 60 61 61 61 62
28 28 30 31 31 31 31 34 31 31 30 30 31 32 32 33 34 35 36 36 37 38 38 39 40 41 42 42 44 44 46 47 49 50 51 53 55 56 56 56 56 56 57 57 58 59 59 59 60
29 30 31 32 32 32 31 34 33 32 32 32 32 32 33 34 35 36 37 37 38 39 39 40 41 41 43 43 43 44 45 46 48 49 50 52 54 55 55 55 55 56 56 56 57 57 57 58 58
30 30 32 33 33 33 33 34 33 34 34 33 34 34 34 36 36 36 38 38 39 39 40 41 42 43 43 44 44 45 46 47 48 49 50 51 52 54 55 55 55 55 56 56 56 55 56 57 57
30 31 31 33 35 35 35 35 34 34 35 35 35 35 35 37 37 38 38 39 40 40 41 42 42 43 44 44 45 46 46 47 48 49 49 49 50 51 53 53 54 54 54 54 54 54 55 56 56
31 31 32 34 36 37 37 36 35 34 35 36 36 37 37 38 38 38 39 40 40 41 41 42 42 43 45 46 47 47 47 47 47 47 47 48 49 51 51 52 51 52 52 52 53 53 53 55 55
34 33 33 34 37 38 38 36 36 36 36 36 37 38 39 38 39 39 40 40 41 41 42 43 43 44 45 46 47 47 47 47 46 46 47 47 49 49 50 49 50 50 50 50 51 51 52 53 54
34 34 35 36 37 38 39 38 37 37 38 38 38 39 39 39 39 40 40 41 42 42 44 44 45 45 46 47 47 47 47 46 45 45 45 46 47 47 49 49 49 49 49 48 48 48 49 51 53
36 36 36 37 37 38 39 38 37 37 38 38 39 39 39 39 39 40 41 42 43 44 45 46 46 46 47 48 47 46 46 44 44 44 44 44 45 45 46 46 47 47 47 47 47 47 47 49 51
Wind_Direction
249 249 249 249 249 249 250 249 249 249 249 249 248 248 249 250 251 254 253 253 252 250 249 248 248 248 249 249 249 249 250 251 251 251 252 252 253 253 254 254 254 254 256 256 256 256 256 257 257
249 249 250 251 251 251 251 251 251 251 250 249 249 250 250 250 251 252 253 253 252 252 251 250 250 249 250 251 251 251 251 252 252 252 252 253 253 254 254 254 255 255 255 256 256 256 256 257 258
250 250 250 251 253 253 255 255 255 255 253 252 251 251 252 252 252 253 253 253 252 252 252 252 252 252 252 252 252 252 253 253 254 253 253 254 254 255 255 255 256 256 256 256 256 256 257 257 257
252 251 250 251 252 254 257 256 256 255 254 254 254 253 253 253 252 253 253 254 254 253 252 253 253 253 253 253 253 254 254 254 255 255 255 255 255 255 256 256 256 256 257 257 256 257 257 257 257
253 253 252 252 253 255 256 257 257 257 257 257 256 255 254 254 254 254 254 255 255 254 254 254 254 254 254 254 254 255 255 255 256 256 257 257 257 256 256 256 256 256 256 257 258 258 258 258 258
257 256 255 255 255 255 256 257 258 259 259 259 258 258 256 255 256 256 256 256 256 256 255 255 256 256 255 255 255 256 256 257 258 258 258 259 258 257 257 256 256 256 257 257 258 259 259 259 259
259 258 257 256 257 257 257 258 259 260 260 260 261 260 258 258 258 258 258 258 258 258 257 256 256 256 256 256 256 256 257 258 258 259 259 259 259 259 257 256 256 257 257 258 258 258 259 259 260
263 261 259 259 259 260 260 259 260 261 263 262 262 263 262 260 260 259 259 259 259 258 258 258 258 258 257 257 257 257 257 258 258 259 259 259 259 259 259 258 257 257 258 258 259 258 258 259 259
266 264 262 262 262 263 262 263 263 264 264 264 264 264 264 264 263 261 261 261 261 260 260 260 260 260 259 259 259 258 258 258 258 259 259 259 259 259 259 260 258 257 258 258 259 259 258 259 259
270 268 267 266 266 266 265 267 267 267 267 266 266 267 267 267 266 265 264 263 263 263 262 262 262 262 261 260 260 259 259 259 259 259 259 259 258 259 259 259 259 259 258 259 259 259 258 258 259
272 272 271 271 270 268 268 271 271 270 270 270 269 268 268 269 269 269 267 265 265 265 265 264 263 263 263 262 260 260 260 260 260 259 259 259 258 258 259 259 259 259 258 258 259 259 258 258 258
274 273 273 274 273 271 271 274 274 274 274 273 271 270 270 270 270 270 269 267 266 266 266 266 265 264 264 263 262 261 261 260 260 260 259 259 259 259 258 258 258 258 257 257 257 258 258 258 257
277 276 276 277 276 275 276 278 278 278 277 277 275 273 273 272 272 272 271 270 269 268 268 268 266 265 264 263 263 262 262 261 261 260 260 259 258 258 257 257 256 257 256 256 256 257 258 258 258
280 279 279 280 280 279 280 282 281 281 281 280 280 278 277 275 274 274 273 272 271 270 270 269 268 266 265 264 265 264 264 263 262 262 261 260 259 258 257 257 257 257 257 255 255 256 257 257 258
281 282 282 283 283 283 284 284 285 285 284 283 282 280 279 278 277 276 276 275 273 273 272 272 271 268 266 266 266 265 265 264 264 264 263 261 260 259 258 257 257 257 257 256 255 256 256 257 257
281 282 284 285 285 286 286 288 287 287 287 286 284 283 282 281 280 279 279 278 277 275 275 274 273 271 269 267 267 266 266 266 265 264 264 263 262 261 260 258 257 256 256 256 255 256 257 257 257
281 284 285 286 287 288 288 290 291 289 289 289 288 287 285 284 283 283 282 281 280 278 278 277 275 275 272 270 269 268 267 266 265 264 264 264 264 262 260 259 258 256 256 256 255 255 256 257 258
282 284 286 289 290 289 290 291 293 292 292 293 292 291 290 289 288 288 287 286 285 283 282 280 279 279 276 273 270 270 268 266 265 265 265 265 264 263 261 260 259 258 257 257 256 256 256 257 257
282 285 288 290 291 290 291 292 292 292 293 295 296 294 292 292 291 291 291 289 288 287 285 284 283 282 280 275 272 271 270 268 266 267 266 266 265 264 263 262 261 260 259 258 257 256 255 256 256
282 285 287 289 291 291 291 292 292 294 295 295 296 295 293 291 291 292 293 293 292 291 288 286 286 284 281 279 275 273 272 270 269 269 268 266 265 266 265 264 264 263 261 260 258 256 255 255 255
281 285 287 289 291 290 291 292 292 294 296 296 296 296 294 292 292 293 294 295 294 293 291 289 288 286 284 281 277 275 274 273 272 270 268 267 265 266 266 266 265 264 263 261 259 256 255 254 254
282 285 286 288 290 291 293 294 294 295 297 297 296 296 295 293 293 295 295 295 295 294 293 292 292 289 287 284 282 280 278 277 276 274 270 268 267 267 268 267 266 265 263 261 259 256 255 254 254
283 285 286 288 289 291 293 294 296 296 296 297 296 296 295 294 295 295 295 295 295 295 295 295 295 292 290 288 288 285 282 281 279 277 274 271 269 269 267 266 266 265 264 262 260 257 255 255 255
284 286 287 287 289 291 293 293 297 297 297 297 297 297 296 295 296 296 296 295 296 297 296 296 296 295 293 292 292 290 287 285 281 279 277 275 272 270 268 268 266 265 264 262 259 258 255 253 253
283 286 288 289 290 292 294 294 297 298 298 298 298 298 297 297 297 298 297 297 297 298 297 296 297 297 296 294 293 292 290 288 285 282 279 276 273 271 269 268 266 265 264 262 259 257 254 252 251
282 285 288 290 292 293 295 295 297 298 298 298 299 299 299 299 299 300 300 299 299 298 298 298 297 298 298 298 296 295 292 290 287 284 281 278 275 273 271 270 266 265 263 262 259 257 253 251 250
281 284 287 289 290 293 294 296 296 297 298 298 299 299 299 300 301 301 301 301 301 301 300 300 300 299 299 300 299 297 293 291 288 285 282 280 277 275 273 270 267 266 264 262 259 256 253 250 247
280 284 286 289 291 293 294 296 297 299 299 300 301 302 301 300 299 301 303 303 303 303 303 303 301 301 302 301 300 297 295 292 290 287 284 280 278 275 273 271 269 267 265 263 259 256 252 248 245
280 282 285 287 289 291 294 296 299 300 301 303 304 303 302 302 300 301 304 304 305 304 304 304 303 302 303 302 300 298 295 293 291 289 286 283 279 276 274 271 269 267 264 261 258 255 251 246 244
278 281 284 286 289 290 292 295 298 299 300 303 304 304 304 303 302 302 304 305 305 305 306 305 304 304 304 303 301 298 296 294 292 291 290 286 282 279 276 273 269 266 262 259 257 252 250 246 244